Погода в Новороссийске

Россия / Краснодарский край     44°43′26″N   37°46′08″E
В апреле 2022 года жителям России запретили посещать сайт meteo.paraplan.net по решению Генеральной прокуратуры. Аудитория сайта уменьшилась в 10 раз. Владельцы сайта не видят смысла в поддержке погодного сервера в таких условиях. Сайт будет закрыт в октябре.
темп.,
°C
ветер,
м/с
пор.,
м/с
влажн.,
%
обл.,
%
осадки,
мм/ч
давл.,
гПа
погр.,
м
25 сентября, вс
вс2500:00+11зсз25793 0.3 1020235
03:00+10зсз25805 0.2 1021184
06:00+9сз14785 0.0 1022108
09:00+15з365627 0.0 10221356
12:00+18зюз464317 0.0 10221920
15:00+17юз564854 0.0 10221741
18:00+15ююз356015 0.0 1022690
21:00+14ююз347118 0.0 1022238
26 сентября, пн
пн2600:00+13ююз247452 0.0 1021183
03:00+13ю23763 0.0 1020119
06:00+13ююв23785 0.0 102090
09:00+18ююв245793 0.0 1019883
12:00+19ю3456100 0.0 10181068
15:00+20ю23545 0.0 1017903
18:00+17ю12696 0.0 1017133
21:00+15св017897 0.0 101628
27 сентября, вт
вт2700:00+14в11756 0.0 101526
03:00+14юв227623 0.0 101440
06:00+14юв2271100 0.0 101241
09:00+18ююв2450100 0.0 1012257
12:00+22ююв364199 0.0 1010580
15:00+23ююв475186 0.0 1009622
18:00+19ююв2373100 0.0 1008130
21:00+17вюв1260100 0.0 100714
28 сентября, ср
ср2800:00+18зсз0144100 0.0 100611
03:00+18ююв2237100 0.0 100520
06:00+18ю1144100 0.0 100521
09:00+20ссв1262100 0.0 1005147
12:00+21юз286096 0.0 1006587
15:00+20юз486716 0.0 1007759
18:00+19ююз37849 0.1 1008558
21:00+18ююз59891 1.3 1009466
29 сентября, чт
чт2900:00+18юз410893 1.8 1009479
03:00+18юз498712 2.4 1010405
06:00+16зюз24930 0.4 1010151
09:00+20зсз12772 1.1 1011243
12:00+23зюз23465 0.0 10121386
15:00+24зсз33395 0.0 10121581
18:00+20ссз255610 0.0 1013285
21:00+16ссв22703 0.0 101562